Powrót do katalogu

DELTA 1 DEB

AktywnyPO
NORAD 42644·DEBRIS·🇺🇸 United States

Wystrzelony Jun 12, 1975 z Vandenberg Space Force Base

Loading…

Następne Przeloty (najbliższe 24 godziny)

TLE

NieaktualneSource: Space-Track

Epoka: Aug 31, 2026, 03:04 UTC

1 42644U 75052MD  26243.12837297  .00000026  00000-0  15843-3 0  9997
2 42644  99.6287 188.4383 0158665 350.5444   9.2696 13.17306319265216

Śledź DELTA 1 DEB w czasie rzeczywistym z AllMySat

Download on the App Store